Location: Eisingen in Unterfranken
(49.7591°N, 9.8347°E)
Time: 09:21:10
(UTC+01:00)

Envisat - Pass Details

Date: 28 November 2022
Orbit: 763 x 765 km, 98.2° (Epoch: 04 February)

Event Time Altitude Azimuth Distance (km) Brightness Sun altitude
Rises 06:45:09 0° 360° (N) 3,247 6.0 -10.5°
Reaches altitude 10° 06:48:52 10° 332° (NNW) 2,315 5.0 -9.9°
Maximum altitude 06:50:52 12° 309° (NW) 2,149 4.7 -9.6°
Enters shadow 06:51:45 12° 298° (WNW) 2,180 4.7 -9.5°
